Location: Holiday Acres Laynes 2 Mobile Home Park
(26.7249°N, 81.8671°W)
Time: 12:24:29
(UTC+00:00)

SL-8 Rocket - Pass Details

Date: 25 November 2020
Orbit: 958 x 990 km, 82.9° (Epoch: 23 January)

Event Time Altitude Azimuth Distance (km) Brightness Sun altitude
Rises 23:33:46 0° 357° (N) 3,669 6.9 -13.3°
Reaches altitude 10° 23:36:17 10° 359° (N) 2,724 6.2 -13.8°
Maximum altitude 23:42:31 74° 85° (E) 1,018 3.9 -15.2°
Drops below altitude 10° 23:48:47 10° 170° (S) 2,732 6.4 -16.5°
Sets 23:51:18 0° 172° (S) 3,681 7.1 -17.1°
